Regional Weather Roundup
Issued by NWS Little Rock, AR

Home | Current Version | Previous Version | Graphics & Text | Print | Product List | Glossary On
Versions: 1 2 3 4 5 6 7 8 9 10 11 12 13 14 15 16 17 18 19 20 21 22 23 24 25 26 27 28 29 30 31 32 33 34 35 36 37 38 39 40 41 42 43 44 45 46 47 48 49 50
000
ASUS44 KLZK 210905
RWRLZK

WEATHER ROUNDUP FOR ARKANSAS
NATIONAL WEATHER SERVICE LITTLE ROCK AR
300 AM CST SUN DEC 21 2014

NOTE: "FAIR" INDICATES FEW OR NO CLOUDS BELOW 12,000 FEET WITH NO
SIGNIFICANT WEATHER AND/OR OBSTRUCTIONS TO VISIBILITY.

ARZ001-003-010-029-211000-
NORTHWEST ARKANSAS

CITY           SKY/WX    TMP DP  RH WIND       PRES   REMARKS
FAYETTEVILLE   CLOUDY    41  39  93 CALM      30.16S
FORT SMITH     CLOUDY    44  40  85 NE3       30.18F
HARRISON       CLOUDY    39  37  92 SE5       30.17S
BENTONVILLE    CLOUDY    43  36  75 S5        30.16S
ROGERS         CLOUDY    41  37  86 S6        30.15F
SILOAM SPGS    CLOUDY    43  36  75 S6        30.15F
HIGHFILL       CLOUDY    42  39  89 S6        30.14F
$$

ARZ004-005-016-211000-
NORTH CENTRAL ARKANSAS

CITY           SKY/WX    TMP DP  RH WIND       PRES   REMARKS
BATESVILLE     CLOUDY    37  36  93 SE3       30.22F
FLIPPIN        CLOUDY    39  36  87 CALM      30.19S
MTN HOME       CLOUDY    38  36  92 SE5       30.18F
$$

ARZ040-041-211000-
WEST CENTRAL ARKANSAS

CITY           SKY/WX    TMP DP  RH WIND       PRES   REMARKS
MENA           CLOUDY    45  45 100 CALM      30.17S
MOUNT IDA      CLEAR     36  35  96 CALM      30.15F FOG
$$

ARZ009-017-025-026-028-211000-
NORTHEAST ARKANSAS

CITY           SKY/WX    TMP DP  RH WIND       PRES   REMARKS
CORNING        CLOUDY    41  36  81 E8        30.24F
JONESBORO      CLOUDY    34  33  96 NE5       30.24F WCI  30
NEWPORT        CLOUDY    38  35  89 NE7       30.24F
WALNUT RIDGE   CLOUDY    39  34  81 E6        30.23F
BLYTHEVILLE    CLEAR     31  29  92 E5        30.25F WCI  26
$$

ARZ022-023-033-042-044-211000-
CENTRAL ARKANSAS

CITY           SKY/WX    TMP DP  RH WIND       PRES   REMARKS
LITTLE ROCK    CLEAR     35  32  88 CALM      30.22S FOG
N LITTLE ROCK    N/A     35  35  99 E6        30.22S WCI  30
SEARCY         CLEAR     35  33  92 N6        30.23F WCI  30
HOT SPRINGS    CLEAR     34  32  92 CALM      30.20S FOG
RUSSELLVILLE   CLOUDY    42  36  79 E3        30.20S
CLINTON        CLOUDY    39  37  93 CALM      30.23S FOG
$$

ARZ036-211000-
EAST ARKANSAS

CITY           SKY/WX    TMP DP  RH WIND       PRES   REMARKS
WEST MEMPHIS   CLEAR     33  31  92 N5        30.21F WCI  29
$$

ARZ050-053-066-070-073-211000-
SOUTHWEST ARKANSAS

CITY           SKY/WX    TMP DP  RH WIND       PRES   REMARKS
ARKADELPHIA    FAIR      32  32 100 CALM      30.22S FOG
CAMDEN         CLEAR     32  28  86 CALM      30.21S FOG
TEXARKANA      CLEAR     38  37  97 E3        30.18F
EL DORADO      CLEAR     34  32  92 CALM      30.19F FOG
DE QUEEN       CLOUDY    45  40  82 E9        30.17F
$$

ARZ056-057-069-211000-
SOUTHEAST ARKANSAS

CITY           SKY/WX    TMP DP  RH WIND       PRES   REMARKS
PINE BLUFF     CLEAR     33  31  92 CALM      30.22S FOG
STUTTGART      CLEAR     36  30  80 NE6       30.22S
MONTICELLO     CLEAR     35  32  88 CALM      30.20S

$$




USA.gov is the U.S. government's official web portal to all federal, state and local government web resources and services.